{"data":{"norad_id":65929,"epoch":"2026-09-20T11:59:31.214976Z","epoch_age_seconds":103098,"freshness":"FRESH","line1":"1 65929U 25225V   26263.49966684  .00026745  00000+0  79983-3 0  9990","line2":"2 65929  53.1593 339.4428 0001275  48.9042 311.2071 15.34401691 54259","mean_motion":15.34401691,"eccentricity":0.0001275,"inclination_deg":53.1593,"raan_deg":339.4428,"arg_perigee_deg":48.9042,"mean_anomaly_deg":311.2071,"bstar":0.00079983,"rev_number":5425,"period_min":93.847654655641,"perigee_km":461.82600771355,"apogee_km":463.57042069317,"semimajor_km":6840.8352142034,"source":"CELESTRAK","updated_at":"2026-09-21T09:00:35.766113Z"}}